Flag for West Bank Weather past 2 weeks in Tulkarm, West Bank

Now
68 °F

Sunny.


Feels Like: 68 °F
Forecast: 58 / 82 °F
Wind: 14 mph from Northwest

Location: Dov Airport

Current Time: Apr 25, 2015 at 12:51:58 PM

Latest Report: Apr 25, 2015 at 11:50 AM


Visibility: 10 mi

Pressure: 30.15 "Hg

Humidity: 46%

Dew point: 46 °F

Location of TulkarmLocation

Historic Weather in Tulkarm — Graph

°F

Tulkarm temperature yesterday

Maximum temperature yesterday: 66 °F (at 11:50 AM)
Minimum temperature yesterday: 61 °F (at 5:50 AM)
Average temperature yesterday: 64 °F

Past Weeks' High & Low Weather Summary

 TemperatureHumidityPressure
High82 °F (Apr 20, 3:50 PM)94% (Apr 11, 9:50 AM)30.24 "Hg (Apr 11, 9:50 AM)
Low50 °F (Apr 12, 9:50 AM)15% (Apr 20, 6:50 PM)29.80 "Hg (Apr 20, 8:50 PM)
Average64 °F66%30.02 "Hg
* Reported Apr 10 10:50 AM — Apr 25 10:50 AM, Tulkarm, Weather by CustomWeather, © 2015

Note: Actual official high and low records may vary slightly from our data, if they occured in-between our weather recording intervals... More about our weather records

Advertising

Tulkarm weather history for previous 24 hours

 ConditionsComfort  
Time TempWeatherWind HumidityBarometerVisibility
10:50 AM
Sat, Apr 25
68 °FSunny.6 mph40%30.15 "Hg10 mi
9:50 AM64 °FSunny.7 mph43%30.15 "Hg10 mi
8:50 AM63 °FSunny.7 mph52%30.18 "Hg10 mi
7:50 AM59 °FSunny.5 mph59%30.18 "Hg10 mi
6:50 AM54 °FClear.7 mph67%30.18 "Hg10 mi
6:00 AM54 °FClear.7 mph67%30.18 "Hg10 mi
9:50 PM
Fri, Apr 24
63 °FClear.6 mph49%30.21 "Hg10 mi
8:50 PM63 °FClear.8 mph49%30.21 "Hg10 mi
7:50 PM63 °FSunny.8 mph45%30.18 "Hg10 mi
6:50 PM63 °FPassing clouds.9 mph45%30.18 "HgN/A
5:50 PM64 °FSunny.10 mph43%30.18 "Hg10 mi
4:50 PM66 °FSunny.12 mph37%30.18 "Hg10 mi
3:50 PM66 °FSunny.12 mph40%30.18 "Hg10 mi
2:50 PM66 °FPassing clouds.10 mph43%30.18 "HgN/A
1:50 PM66 °FPassing clouds.13 mph40%30.18 "HgN/A
12:50 PM66 °FPassing clouds.14 mph43%30.18 "HgN/A
Weather by CustomWeather, © 2015

See weather overviewHow to use our weather pages